Back to catalog

STARLINK-5506

AliveCommunicationsVLEO
NORAD 55651·PAYLOAD·🇺🇸 United States

Launched Feb 17, 2023 from Vandenberg Space Force Base

Loading…

Next Passes (next 24 hours)

TLE

FreshSource: CelesTrak SupGP

Epoch: Sep 14, 2026, 22:21 UTC

1 55651C 23021Z   26257.93173611  .00022018  00000+0  18451-2 0  2573
2 55651  70.0013  67.3968 0003015 273.8479 167.2891 14.98322618    12

Track STARLINK-5506 in real time with AllMySat

Download on the App Store